sat.trackr.live / text

‹ back to catalog

STARLINK-3266

NORAD 50195 · 2021-125AR

PAYLOAD ACTIVE UNKNOWN

§ Identity

Operator
Country
US
Launch date
2021-12-18
Launch site
AFWTR
Launch vehicle
Mass (kg)
RCS (m²)

Purposes: comms

External: N2YO · Heavens-Above · Gunter

§ Orbital elements

Epoch: 2026-05-25T00:22:52.891680Z

Period
95.44 min
Inclination
53.2155°
Eccentricity
0.0001255
Mean motion
15.08837820 rev/d
Perigee alt
538.9 km
Apogee alt
540.6 km
Semi-major
6,917.9 km
B*
8.1408e-5
RAAN
256.4789°
Arg perigee
92.5468°
Mean anomaly
267.5668°
Rev number
24,825

§ Raw data

STARLINK-32661 50195U 21125AR  26145.01588995  .00001008  00000+0  81408-4 0  99972 50195  53.2155 256.4789 0001255  92.5468 267.5668 15.08837820248254

JSON: /api/v1/satellites/50195 · /tle

For live sub-satellite position, see the globe view (requires WebGL).

§ Visibility from observer

Set your observer location to see the next 7 days of passes ≥ 10°. The values pass through the URL so the page stays shareable.

No JS? Fill the form by hand. The geolocation button needs JavaScript.